Home > Weather > Brazzaville > Past weeks

Flag for Congo Weather for the Past 2 Weeks in Brazzaville, Congo

Now
79 °F

Thunderstorms. Passing clouds.


Feels Like: 82 °F
Forecast: 75 / 91 °F
Wind: 3 mph from North

Location: Brazzaville / Maya-Maya

Current Time: May 1, 2016 at 9:27:44 PM

Latest Report: May 1, 2016 at 9:00 PM


Visibility: 5 mi

Pressure: 29.86 "Hg

Humidity: 79%

Dew Point: 72 °F

Location of BrazzavilleLocation

Historic Weather in Brazzaville — Graph

°F

Brazzaville Temperature Yesterday

Maximum temperature yesterday: 88 °F (at 3:00 PM)
Minimum temperature yesterday: 72 °F (at 4:00 AM)
Average temperature yesterday: 79 °F

High & Low Weather Summary for the Past Weeks

 TemperatureHumidityPressure
High95 °F (Apr 26, 4:00 PM)100% (Apr 17, 2:00 AM)30.04 "Hg (Apr 17, 2:00 AM)
Low72 °F (Apr 17, 2:00 AM)47% (Apr 26, 4:00 PM)29.71 "Hg (Apr 23, 4:00 PM)
Average80 °F81%29.88 "Hg
* Reported Apr 16 8:00 PM — May 1 8:00 PM, Brazzaville, Weather by CustomWeather, © 2016

Note: Actual official high and low records may vary slightly from our data, if they occured in-between our weather recording intervals... More about our weather records

Advertising

Brazzaville Weather History for the Previous 24 Hours

Scroll right to see more
 ConditionsComfort  
Time TempWeatherWind HumidityBarometerVisibility
8:00 PM
Sun, May 1
82 °FThunderstorms. Passing clouds.10 mph70%29.83 "Hg5 mi
7:00 PM84 °FThunderstorms. Passing clouds.16 mph66%29.83 "Hg5 mi
6:53 PM84 °FThunderstorms. Passing clouds.16 mph66%29.83 "Hg5 mi
6:00 PM88 °FPassing clouds.No wind66%29.77 "HgN/A
5:00 PM90 °FPassing clouds.3 mph63%29.77 "HgN/A
4:00 PM91 °FPassing clouds.6 mph59%29.74 "HgN/A
3:00 PM91 °FPassing clouds.5 mph56%29.74 "HgN/A
2:00 PM91 °FScattered clouds.No wind59%29.80 "HgN/A
1:00 PM88 °FScattered clouds.3 mph62%29.83 "HgN/A
12:00 PM88 °FPartly sunny.3 mph62%29.86 "HgN/A
11:00 AM84 °FPartly sunny.6 mph66%29.89 "HgN/A
10:00 AM82 °FScattered clouds.3 mph74%29.89 "Hg5 mi
9:00 AM81 °FScattered clouds.1 mph79%29.92 "Hg5 mi
8:00 AM75 °FScattered clouds.5 mph94%29.89 "Hg4 mi
7:00 AM73 °FPassing clouds.No wind100%29.89 "Hg4 mi
6:00 AM73 °FPassing clouds.2 mph94%29.86 "Hg5 mi
5:00 AM73 °FPassing clouds.2 mph94%29.86 "Hg5 mi
4:00 AM73 °FClear.No wind94%29.86 "Hg5 mi
3:00 AM73 °FClear.No wind94%29.86 "Hg5 mi
2:00 AM75 °FClear.2 mph94%29.86 "Hg5 mi
1:00 AM75 °FClear.3 mph89%29.89 "Hg5 mi
12:00 AM75 °FClear.3 mph89%29.89 "Hg5 mi
11:00 PM
Sat, Apr 30
75 °FClear.2 mph89%29.89 "Hg5 mi
10:00 PM77 °FClear.2 mph83%29.89 "Hg5 mi
9:00 PM79 °FPassing clouds.No wind79%29.89 "Hg5 mi
Weather by CustomWeather, © 2016

See weather overviewHow to use our weather pages